Terug naar catalogus

ONEWEB-0326

ActiefCommunicatiePO
NORAD 49195·PAYLOAD·🇬🇧 United Kingdom

Gelanceerd Sep 14, 2021 vanaf Baikonur Cosmodrome

Loading…

Volgende Passages (komende 24 uur)

TLE

VersSource: CelesTrak SupGP

Epoch: Sep 15, 2026, 02:01 UTC

1 49195C 21083K   26258.08456433  .00002575  00000+0  65386-2 0  2584
2 49195  87.9170 317.5975 0002158 103.6112 337.1980 13.18686867    15

Volg ONEWEB-0326 in realtime met AllMySat

Download on the App Store